Time,TemperatureF,DewpointF,PressureIn,WindDirection,WindDirectionDegrees,WindSpeedMPH,WindSpeedGustMPH,Humidity,HourlyPrecipIn,Conditions,Clouds,dailyrainin,SoftwareType,DateUTC
2013-05-02 00:30:00,24.0,14.0,-100.00,NNE,30,3.0,5.0,66,-99.99,,,0.00,,2013-05-02 06:30:00,
2013-05-02 01:00:00,23.0,14.0,-100.00,NE,40,4.0,5.0,67,-99.99,,,0.00,,2013-05-02 07:00:00,
2013-05-02 01:11:00,24.0,14.0,-100.00,NNE,30,3.0,5.0,66,-99.99,,,0.00,,2013-05-02 07:11:00,
2013-05-02 01:21:00,24.0,14.0,-100.00,NNE,30,3.0,5.0,66,-99.99,,,0.00,,2013-05-02 07:21:00,
2013-05-02 01:52:00,23.0,14.0,-100.00,NE,40,4.0,5.0,67,-99.99,,,0.00,,2013-05-02 07:52:00,
2013-05-02 02:01:00,23.0,13.0,-100.00,NE,40,3.0,4.0,67,-99.99,,,0.00,,2013-05-02 08:01:00,
2013-05-02 02:11:00,23.0,13.0,-100.00,NE,50,3.0,6.0,66,-99.99,,,0.00,,2013-05-02 08:11:00,
2013-05-02 02:21:00,23.0,13.0,-100.00,NE,50,3.0,6.0,66,-99.99,,,0.00,,2013-05-02 08:21:00,
2013-05-02 02:32:00,23.0,13.0,-100.00,NE,40,3.0,4.0,67,-99.99,,,0.00,,2013-05-02 08:32:00,
2013-05-02 02:42:00,23.0,13.0,-100.00,NE,40,3.0,4.0,67,-99.99,,,0.00,,2013-05-02 08:42:00,
2013-05-02 02:52:00,23.0,13.0,-100.00,NE,40,3.0,4.0,67,-99.99,,,0.00,,2013-05-02 08:52:00,
2013-05-02 03:00:00,21.0,14.0,-100.00,NNE,20,1.0,1.0,73,-99.99,,,0.00,,2013-05-02 09:00:00,
2013-05-02 03:11:00,22.0,13.0,-100.00,NE,50,2.0,3.0,69,-99.99,,,0.00,,2013-05-02 09:11:00,
2013-05-02 03:21:00,22.0,13.0,-100.00,NE,50,2.0,3.0,69,-99.99,,,0.00,,2013-05-02 09:21:00,
2013-05-02 03:32:00,21.0,14.0,-100.00,NNE,20,1.0,1.0,73,-99.99,,,0.00,,2013-05-02 09:32:00,
2013-05-02 03:42:00,21.0,14.0,-100.00,NNE,20,1.0,1.0,73,-99.99,,,0.00,,2013-05-02 09:42:00,
2013-05-02 03:52:00,21.0,14.0,-100.00,NNE,20,1.0,1.0,73,-99.99,,,0.00,,2013-05-02 09:52:00,
2013-05-02 04:12:00,21.0,13.0,-100.00,NE,45,3.0,4.0,73,-99.99,,,0.00,,2013-05-02 10:12:00,
2013-05-02 04:22:00,21.0,13.0,-100.00,NE,45,3.0,4.0,73,-99.99,,,0.00,,2013-05-02 10:22:00,
2013-05-02 04:32:00,20.0,13.0,-100.00,NE,55,3.0,4.0,73,-99.99,,,0.00,,2013-05-02 10:32:00,
2013-05-02 04:42:00,20.0,13.0,-100.00,NE,55,3.0,4.0,73,-99.99,,,0.00,,2013-05-02 10:42:00,
2013-05-02 04:52:00,20.0,14.0,-100.00,SSW,205,1.0,2.0,75,-99.99,,,0.00,,2013-05-02 10:52:00,
2013-05-02 05:01:00,20.0,14.0,-100.00,South,175,0.0,1.0,78,-99.99,,,0.00,,2013-05-02 11:01:00,
2013-05-02 05:02:00,20.0,14.0,-100.00,SSW,205,1.0,2.0,75,-99.99,,,0.00,,2013-05-02 11:02:00,
2013-05-02 05:11:00,20.0,14.0,-100.00,SSW,205,1.0,2.0,75,-99.99,,,0.00,,2013-05-02 11:11:00,
2013-05-02 05:21:00,20.0,14.0,-100.00,SSW,205,1.0,2.0,75,-99.99,,,0.00,,2013-05-02 11:21:00,
2013-05-02 05:30:00,19.0,13.0,-100.00,NNE,30,0.0,2.0,77,-99.99,,,0.00,,2013-05-02 11:30:00,
2013-05-02 05:32:00,20.0,14.0,-100.00,South,175,0.0,1.0,78,-99.99,,,0.00,,2013-05-02 11:32:00,
2013-05-02 05:42:00,20.0,14.0,-100.00,South,175,0.0,1.0,78,-99.99,,,0.00,,2013-05-02 11:42:00,
2013-05-02 05:52:00,20.0,14.0,-100.00,South,175,0.0,1.0,78,-99.99,,,0.00,,2013-05-02 11:52:00,
2013-05-02 06:11:00,19.0,13.0,-100.00,NNE,30,0.0,2.0,77,-99.99,,,0.00,,2013-05-02 12:11:00,
2013-05-02 06:21:00,19.0,13.0,-100.00,NNE,30,0.0,2.0,77,-99.99,,,0.00,,2013-05-02 12:21:00,
2013-05-02 06:52:00,19.0,13.0,-100.00,South,190,1.0,4.0,78,-99.99,,,0.00,,2013-05-02 12:52:00,
2013-05-02 07:01:00,19.0,13.0,-100.00,South,190,1.0,4.0,78,-99.99,,,0.00,,2013-05-02 13:01:00,
2013-05-02 07:11:00,18.0,13.0,-100.00,NNE,30,2.0,3.0,80,-99.99,,,0.00,,2013-05-02 13:11:00,
2013-05-02 07:21:00,18.0,13.0,-100.00,NNE,30,2.0,3.0,80,-99.99,,,0.00,,2013-05-02 13:21:00,
2013-05-02 07:31:00,19.0,14.0,-100.00,WSW,245,0.0,4.0,80,-99.99,,,-99.99,,2013-05-02 13:31:00,
2013-05-02 07:41:00,19.0,14.0,-100.00,WSW,245,0.0,4.0,80,-99.99,,,-99.99,,2013-05-02 13:41:00,
2013-05-02 07:52:00,21.0,15.0,-100.00,NE,35,1.0,4.0,76,-99.99,,,0.00,,2013-05-02 13:52:00,
2013-05-02 08:02:00,21.0,15.0,-100.00,NE,35,1.0,4.0,76,-99.99,,,0.00,,2013-05-02 14:02:00,
2013-05-02 08:11:00,20.0,15.0,-100.00,South,190,3.0,4.0,82,-99.99,,,0.00,,2013-05-02 14:11:00,
2013-05-02 08:21:00,20.0,15.0,-100.00,South,190,3.0,4.0,82,-99.99,,,0.00,,2013-05-02 14:21:00,
2013-05-02 08:31:00,21.0,17.0,-100.00,SSW,200,2.0,3.0,84,-99.99,,,0.00,,2013-05-02 14:31:00,
2013-05-02 08:42:00,21.0,17.0,-100.00,SSW,200,2.0,3.0,84,-99.99,,,0.00,,2013-05-02 14:42:00,
2013-05-02 08:52:00,23.0,17.0,-100.00,SW,225,1.0,2.0,80,-99.99,,,0.00,,2013-05-02 14:52:00,
2013-05-02 09:02:00,23.0,17.0,-100.00,SW,225,1.0,2.0,80,-99.99,,,0.00,,2013-05-02 15:02:00,
2013-05-02 09:12:00,23.0,17.0,-100.00,SSW,210,1.0,2.0,77,-99.99,,,0.00,,2013-05-02 15:12:00,
2013-05-02 09:21:00,23.0,17.0,-100.00,SSW,210,1.0,2.0,77,-99.99,,,0.00,,2013-05-02 15:21:00,
2013-05-02 09:33:00,25.0,17.0,-100.00,SW,220,0.0,1.0,70,-99.99,,,-99.99,,2013-05-02 15:33:00,
2013-05-02 09:43:00,25.0,17.0,-100.00,SW,220,0.0,1.0,70,-99.99,,,-99.99,,2013-05-02 15:43:00,
2013-05-02 10:02:00,29.0,19.0,-100.00,East,90,0.0,1.0,67,-99.99,,,0.00,,2013-05-02 16:02:00,
2013-05-02 10:13:00,34.0,20.0,-100.00,SSW,205,2.0,3.0,54,-99.99,,,0.00,,2013-05-02 16:13:00,
2013-05-02 10:22:00,34.0,20.0,-100.00,SSW,205,2.0,3.0,54,-99.99,,,0.00,,2013-05-02 16:22:00,
2013-05-02 10:32:00,36.0,13.0,-100.00,SSW,205,0.0,3.0,38,-99.99,,,0.00,,2013-05-02 16:32:00,
2013-05-02 10:43:00,36.0,13.0,-100.00,SSW,205,0.0,3.0,38,-99.99,,,0.00,,2013-05-02 16:43:00,
2013-05-02 10:52:00,41.0,7.0,-100.00,NW,320,1.0,2.0,24,-99.99,,,0.00,,2013-05-02 16:52:00,
2013-05-02 11:02:00,41.0,7.0,-100.00,NW,320,1.0,2.0,24,-99.99,,,0.00,,2013-05-02 17:02:00,
2013-05-02 11:12:00,43.0,4.0,-100.00,West,265,0.0,2.0,20,-99.99,,,0.00,,2013-05-02 17:12:00,
2013-05-02 11:31:00,45.0,3.0,-100.00,NW,310,0.0,2.0,17,-99.99,,,0.00,,2013-05-02 17:31:00,
2013-05-02 11:51:00,47.0,1.0,-100.00,NNW,330,2.0,3.0,15,-99.99,,,0.00,,2013-05-02 17:51:00,
2013-05-02 12:01:00,47.0,1.0,-100.00,NNW,330,2.0,3.0,15,-99.99,,,0.00,,2013-05-02 18:01:00,
2013-05-02 12:11:00,45.0,8.0,-100.00,SW,235,4.0,9.0,22,-99.99,,,0.00,,2013-05-02 18:11:00,
2013-05-02 12:21:00,45.0,8.0,-100.00,SW,235,4.0,9.0,22,-99.99,,,0.00,,2013-05-02 18:21:00,
2013-05-02 12:31:00,44.0,8.0,-100.00,WSW,250,6.0,9.0,23,-99.99,,,0.00,,2013-05-02 18:31:00,
2013-05-02 12:41:00,44.0,8.0,-100.00,WSW,250,6.0,9.0,23,-99.99,,,0.00,,2013-05-02 18:41:00,
2013-05-02 12:51:00,45.0,13.0,-100.00,WNW,300,6.0,16.0,26,-99.99,,,0.00,,2013-05-02 18:51:00,
2013-05-02 13:01:00,45.0,13.0,-100.00,WNW,300,6.0,16.0,26,-99.99,,,0.00,,2013-05-02 19:01:00,
2013-05-02 13:11:00,47.0,5.0,-100.00,West,270,9.0,12.0,18,-99.99,,,0.00,,2013-05-02 19:11:00,
2013-05-02 13:21:00,47.0,5.0,-100.00,West,270,9.0,12.0,18,-99.99,,,0.00,,2013-05-02 19:21:00,
2013-05-02 13:31:00,47.0,5.0,-100.00,West,270,9.0,12.0,18,-99.99,,,0.00,,2013-05-02 19:31:00,
2013-05-02 13:52:00,46.0,13.0,-100.00,West,265,10.0,14.0,26,-99.99,,,0.00,,2013-05-02 19:52:00,
2013-05-02 14:02:00,46.0,13.0,-100.00,West,265,10.0,14.0,26,-99.99,,,0.00,,2013-05-02 20:02:00,
2013-05-02 14:11:00,47.0,8.0,-100.00,SW,230,8.0,16.0,20,-99.99,,,0.00,,2013-05-02 20:11:00,
2013-05-02 14:32:00,49.0,3.0,-100.00,SW,230,9.0,13.0,15,-99.99,,,0.00,,2013-05-02 20:32:00,
2013-05-02 14:41:00,49.0,3.0,-100.00,SW,230,9.0,13.0,15,-99.99,,,0.00,,2013-05-02 20:41:00,
2013-05-02 14:52:00,50.0,9.0,-100.00,SW,225,5.0,11.0,19,-99.99,,,0.00,,2013-05-02 20:52:00,
2013-05-02 15:00:00,49.0,10.0,-100.00,SW,230,10.0,12.0,20,-99.99,,,0.00,,2013-05-02 21:00:00,
2013-05-02 15:01:00,50.0,9.0,-100.00,SW,225,5.0,11.0,19,-99.99,,,0.00,,2013-05-02 21:01:00,
2013-05-02 15:11:00,50.0,9.0,-100.00,SW,225,5.0,11.0,19,-99.99,,,0.00,,2013-05-02 21:11:00,
2013-05-02 15:21:00,50.0,9.0,-100.00,SW,225,5.0,11.0,19,-99.99,,,0.00,,2013-05-02 21:21:00,
2013-05-02 15:33:00,49.0,10.0,-100.00,SW,230,10.0,12.0,20,-99.99,,,0.00,,2013-05-02 21:33:00,
2013-05-02 15:42:00,49.0,10.0,-100.00,SW,230,10.0,12.0,20,-99.99,,,0.00,,2013-05-02 21:42:00,
2013-05-02 15:53:00,49.0,10.0,-100.00,SW,230,10.0,12.0,20,-99.99,,,0.00,,2013-05-02 21:53:00,
2013-05-02 16:12:00,50.0,9.0,-100.00,SSW,210,12.0,16.0,19,-99.99,,,0.00,,2013-05-02 22:12:00,
2013-05-02 16:22:00,50.0,9.0,-100.00,SSW,210,12.0,16.0,19,-99.99,,,0.00,,2013-05-02 22:22:00,
2013-05-02 16:32:00,49.0,14.0,-100.00,WSW,240,9.0,13.0,24,-99.99,,,0.00,,2013-05-02 22:32:00,
2013-05-02 16:52:00,49.0,14.0,-100.00,WSW,240,9.0,13.0,24,-99.99,,,0.00,,2013-05-02 22:52:00,
2013-05-02 17:11:00,48.0,18.0,-100.00,WSW,245,11.0,14.0,30,-99.99,,,0.00,,2013-05-02 23:11:00,
2013-05-02 17:22:00,48.0,18.0,-100.00,WSW,245,11.0,14.0,30,-99.99,,,0.00,,2013-05-02 23:22:00,
2013-05-02 17:32:00,47.0,17.0,-100.00,West,260,9.0,15.0,29,-99.99,,,0.00,,2013-05-02 23:32:00,
2013-05-02 17:51:00,47.0,17.0,-100.00,West,260,9.0,15.0,29,-99.99,,,0.00,,2013-05-02 23:51:00,
2013-05-02 18:11:00,49.0,12.0,-100.00,SW,235,13.0,17.0,22,-99.99,,,0.00,,2013-05-03 00:11:00,
2013-05-02 18:21:00,49.0,12.0,-100.00,SW,235,13.0,17.0,22,-99.99,,,0.00,,2013-05-03 00:21:00,
2013-05-02 18:52:00,47.0,17.0,-100.00,WSW,245,8.0,14.0,29,-99.99,,,0.00,,2013-05-03 00:52:00,
2013-05-02 19:11:00,47.0,18.0,-100.00,WSW,255,9.0,16.0,31,-99.99,,,0.00,,2013-05-03 01:11:00,
2013-05-02 19:31:00,47.0,17.0,-100.00,West,265,9.0,17.0,29,-99.99,,,0.00,,2013-05-03 01:31:00,
2013-05-02 19:52:00,47.0,17.0,-100.00,West,265,9.0,17.0,29,-99.99,,,0.00,,2013-05-03 01:52:00,
2013-05-02 20:11:00,46.0,15.0,-100.00,WSW,255,9.0,12.0,29,-99.99,,,-99.99,,2013-05-03 02:11:00,
2013-05-02 20:21:00,46.0,15.0,-100.00,WSW,255,9.0,12.0,29,-99.99,,,-99.99,,2013-05-03 02:21:00,
2013-05-02 20:31:00,46.0,14.0,-100.00,West,280,8.0,11.0,27,-99.99,,,0.00,,2013-05-03 02:31:00,
2013-05-02 20:42:00,46.0,14.0,-100.00,West,280,8.0,11.0,27,-99.99,,,0.00,,2013-05-03 02:42:00,
2013-05-02 20:52:00,45.0,15.0,-100.00,West,280,9.0,12.0,29,-99.99,,,0.00,,2013-05-03 02:52:00,
2013-05-02 21:00:00,42.0,19.0,-100.00,West,270,9.0,12.0,40,-99.99,,,0.00,,2013-05-03 03:00:00,
2013-05-02 21:01:00,45.0,15.0,-100.00,West,280,9.0,12.0,29,-99.99,,,0.00,,2013-05-03 03:01:00,
2013-05-02 21:11:00,43.0,17.0,-100.00,West,260,6.0,12.0,34,-99.99,,,0.00,,2013-05-03 03:11:00,
2013-05-02 21:21:00,43.0,17.0,-100.00,West,260,6.0,12.0,34,-99.99,,,0.00,,2013-05-03 03:21:00,
2013-05-02 21:33:00,42.0,19.0,-100.00,West,270,9.0,12.0,40,-99.99,,,0.00,,2013-05-03 03:33:00,
2013-05-02 21:42:00,42.0,19.0,-100.00,West,270,9.0,12.0,40,-99.99,,,0.00,,2013-05-03 03:42:00,
2013-05-02 21:52:00,42.0,19.0,-100.00,West,270,9.0,12.0,40,-99.99,,,0.00,,2013-05-03 03:52:00,
2013-05-02 22:00:00,40.0,16.0,-100.00,South,180,4.0,6.0,37,-99.99,,,0.00,,2013-05-03 04:00:00,
2013-05-02 22:12:00,42.0,16.0,-100.00,WSW,255,6.0,10.0,34,-99.99,,,0.00,,2013-05-03 04:12:00,
2013-05-02 22:22:00,42.0,16.0,-100.00,WSW,255,6.0,10.0,34,-99.99,,,0.00,,2013-05-03 04:22:00,
2013-05-02 22:32:00,40.0,16.0,-100.00,South,180,4.0,6.0,37,-99.99,,,0.00,,2013-05-03 04:32:00,
2013-05-02 22:42:00,40.0,16.0,-100.00,South,180,4.0,6.0,37,-99.99,,,0.00,,2013-05-03 04:42:00,
2013-05-02 22:52:00,40.0,16.0,-100.00,South,180,4.0,6.0,37,-99.99,,,0.00,,2013-05-03 04:52:00,
2013-05-02 23:00:00,37.0,15.0,-100.00,NNE,25,4.0,5.0,41,-99.99,,,0.00,,2013-05-03 05:00:00,
2013-05-02 23:12:00,38.0,17.0,-100.00,NE,35,0.0,4.0,43,-99.99,,,0.00,,2013-05-03 05:12:00,
2013-05-02 23:21:00,38.0,17.0,-100.00,NE,35,0.0,4.0,43,-99.99,,,0.00,,2013-05-03 05:21:00,
2013-05-02 23:31:00,36.0,19.0,-100.00,NNE,20,1.0,4.0,49,-99.99,,,-99.99,,2013-05-03 05:31:00,
2013-05-02 23:32:00,37.0,15.0,-100.00,NNE,25,4.0,5.0,41,-99.99,,,0.00,,2013-05-03 05:32:00,
2013-05-02 23:42:00,37.0,15.0,-100.00,NNE,25,4.0,5.0,41,-99.99,,,0.00,,2013-05-03 05:42:00,
2013-05-02 23:52:00,37.0,15.0,-100.00,NNE,25,4.0,5.0,41,-99.99,,,0.00,,2013-05-03 05:52:00,